Погода в Светлом

Россия / Ивановская область     56°50′37″N   40°31′51″E
темп.,
°C
ветер,
м/с
пор.,
м/с
влажн.,
%
обл.,
%
осадки,
мм/ч
давл.,
гПа
погр.,
м
15 апреля, чт
чт1500:00+11ю2261100 0.0 101811
03:00+9ююв116497 0.0 101810
06:00+9св1167100 0.0 101810
09:00+13св2457100 0.0 1018191
12:00+17св3443100 0.0 1018705
15:00+17св4548100 0.0 10191080
18:00+12св61076100 0.0 1020539
21:00+8св61385100 0.0 1022507
16 апреля, пт
пт1600:00+7всв51487100 0.0 1022508
03:00+5всв51488100 0.0 1023508
06:00+4всв51384100 0.0 1024496
09:00+7всв6107193 0.0 1025599
12:00+12всв685982 0.0 1025876
15:00+13всв685496 0.0 10251126
18:00+12всв5959100 0.0 1025963
21:00+8всв51364100 0.0 1027574
17 апреля, сб
сб1700:00+6всв5126799 0.0 1027446
03:00+4всв4127459 0.0 1028384
06:00+3всв4127318 0.0 1028406
09:00+8всв510519 0.0 1028624
12:00+12всв683660 0.0 10271076
15:00+13всв68325 0.0 10271357
18:00+11всв58411 0.0 10271055
21:00+7всв412575 0.0 1027388
18 апреля, вс
вс1800:00+5всв412680 0.0 1027385
03:00+4св311760 0.0 1027296
06:00+3св411790 0.0 1027331
09:00+8всв48570 0.0 1027815
12:00+12всв57395 0.0 10261578
15:00+12всв6737100 0.0 10261733
18:00+10всв484998 0.0 10271330
21:00+8всв51064100 0.0 1028695
19 апреля, пн
пн1900:00+5всв41077100 0.0 1029522
03:00+3всв4107587 0.0 1030445
06:00+2всв4107149 0.0 1031433
09:00+5в58505 0.0 1032827
12:00+8в57340 0.0 10311543
15:00+9в57300 0.0 10311711
18:00+8всв46405 0.0 10321537
21:00+3всв310575 0.0 1033290